Regional Weather Roundup
Issued by NWS

Home | Current Version | Previous Version | Text Only | Print | Product List | Glossary Off
Versions: 1 2 3 4 5 6 7 8 9 10 11 12 13 14 15 16 17 18 19 20 21 22 23 24 25 26 27 28 29 30 31 32 33 34 35 36 37 38 39 40 41 42 43 44 45 46 47 48 49 50

261
ASUS43 KMKX 261521
RWRWI

WISCONSIN REGIONAL WEATHER ROUNDUP
NATIONAL WEATHER SERVICE MILWAUKEE/SULLIVAN WI
1000 AM CDT THU MAY 26 2016

NOTE: "FAIR" INDICATES FEW OR NO CLOUDS BELOW 12,000 FEET WITH NO
SIGNIFICANT WEATHER AND/OR OBSTRUCTIONS TO VISIBILITY.

WIZ001-002-006>008-014>016-023>028-261600-
NORTHWEST WISCONSIN

CITY           SKY/WX    TMP DP  RH WIND       PRES   REMARKS
SUPERIOR ARPT  FOG       45  45 100 N5        29.82F VSB 1
ASHLAND        CLOUDY    52  52 100 N3        29.81S
HAYWARD        CLOUDY    62  60  93 S6        29.81S
SIREN          CLOUDY    64  61  91 CALM      29.80F
CUMBERLAND     CLOUDY    61  61 100 SW3       29.82S
RICE LAKE      CLOUDY    64  63  96 W3        29.84R
CHETEK         CLOUDY    65  64  97 SW3       29.82S
LADYSMITH      CLOUDY    64  64  97 W5        29.84S
EAU CLAIRE     CLOUDY    65  60  84 SW6       29.81S
MENOMONIE      PTSUNNY   65  65  99 SW10      29.83S
NEW RICHMOND   MOSUNNY   67  57  69 CALM      29.82S
OSCEOLA        PTSUNNY   67  63  85 SW6       29.83F
$$

WIZ003>005-009-010-017-018-261600-
NORTH CENTRAL WISCONSIN

CITY           SKY/WX    TMP DP  RH WIND       PRES   REMARKS
MANITOWISH WTR NOT AVBL
ARBOR VITAE    CLOUDY    63  62  96 SW5       29.81S FOG
WOODRUFF       CLOUDY    63  62  96 SW5       29.81S FOG
RHINELANDER    LGT RAIN  63  60  90 SW9G18    29.82F
EAGLE RIVER      N/A     64  62  94 CALM      29.80F
LAND O LAKES   CLOUDY    65  62  87 CALM      29.81F
PHILLIPS       CLOUDY    62  62  99 S6        29.83R
TOMAHAWK       LGT RAIN  60  60  97 W5        29.82F
MEDFORD        LGT RAIN  60  60 100 CALM      29.82F
MERRILL        LGT RAIN  62  62 100 CALM      29.82F
$$

WIZ029-030-035-036-043>047-261600-
CENTRAL WISCONSIN

CITY           SKY/WX    TMP DP  RH WIND       PRES   REMARKS
WAUSAU         CLOUDY    65 N/A N/A NW8       29.77F
MOSINEE        MOSUNNY   63  63 100 NW9       29.80S
MARSHFIELD     CLOUDY    66  60  81 N6        29.78F
STEVENS POINT  CLOUDY    61  61 100 NW3       29.80S
WAUPACA        MOSUNNY   67  66  97 E9        29.78F
WAUTOMA        CLOUDY    64  63  94 SW7       29.83R
WISC RAPIDS    CLOUDY    64  60  87 CALM      29.81R
CAMP DOUGLAS   MOSUNNY   64  61  88 VRB2      29.83R
$$

WIZ011>013-019>022-031-037>040-048>050-261600-
NORTHEAST WISCONSIN

CITY           SKY/WX    TMP DP  RH WIND       PRES   REMARKS
ANTIGO         DRIZZLE   62  62 100 S3        29.82F
SHAWANO        CLOUDY    66  64  96 CALM      29.83F
OCONTO         CLOUDY    62  62 100 S3        29.85S VSB 3/4
STURGEON BAY   NOT AVBL
GREEN BAY      MOSUNNY   69  65  86 S10       29.84F
MANITOWOC      LGT RAIN  63  62  97 SE7       29.88F
APPLETON       PTSUNNY   64  64 100 CALM      29.81F
CLINTONVILLE   LGT RAIN  64  63  94 SE5       29.81F
OSHKOSH        CLOUDY    68  63  84 E8        29.81F
$$

WIZ032>034-041-042-053>061-261600-
SOUTHWEST WISCONSIN

CITY           SKY/WX    TMP DP  RH WIND       PRES   REMARKS
LA CROSSE      PTSUNNY   69  62  78 VRB5      29.83R
SPARTA         MOSUNNY   66  62  86 CALM      29.84S
VIROQUA        PTSUNNY   65  62  89 SW5       29.87R
BOSCOBEL       MOSUNNY   71  62  73 S6        29.85R
PRAIRIE DU CHI CLOUDY    68  59  71 CALM      29.85S
PLATTEVILLE    SUNNY     70  61  72 S9        29.88S
$$

WIZ056-057-062-063-064-067-068-261600-
SOUTH CENTRAL WISCONSIN

CITY           SKY/WX    TMP DP  RH WIND       PRES   REMARKS
REEDSBURG      CLOUDY    68  62  81 CALM      29.84R
BARABOO/DELLS  CLOUDY    68  62  81 SW8       29.86R
LONE ROCK      CLOUDY    73  59  61 W6        29.86R
MINERAL POINT  SUNNY     72  63  73 S7        29.88S
MADISON        PTSUNNY   69  62  78 S15       29.86R
MIDDLETON      PTSUNNY   72  64  73 S12       29.87R
WATERTOWN      PTSUNNY   68  68 100 S10       29.87R
MONROE         CLOUDY    66  61  82 S7        29.90R
JANESVILLE     MOSUNNY   70  63  78 SW5       29.90R
$$

WIZ051-052-058>065-066-070>072-261600-
SOUTHEAST WISCONSIN

CITY           SKY/WX    TMP DP  RH WIND       PRES   REMARKS
MILWAUKEE      LGT RAIN  69  66  90 CALM      29.87F
WAUKESHA       SUNNY     64  63  94 CALM      29.90F
MILWAUKEE/TIMM MOSUNNY   70  64  83 CALM      29.88F
RACINE         LGT RAIN  71  67  87 E3        29.89F
BURLINGTON     CLOUDY    65  63  92 CALM      29.91R
KENOSHA        PTSUNNY   71  63  75 CALM      29.89F
FOND DU LAC    CLOUDY    69  65  86 SE8       29.83F
SHEBOYGAN      RAIN      68  64  87 NW3       29.85F FOG
WEST BEND      CLOUDY    66  63  88 S6        29.86F
JUNEAU         CLOUDY    69  65  89 S9        29.86F
$$

LSZ147-162-261600-
LAKE SUPERIOR

STATION/POSITION TIME  TEMP    WIND        PRES    WAVE
                       AIR SEA DIR/SP/G            HT/PER
                 (UTC) (F)     (DEG/KT/KT) (MB)    (FT/S)
W MID LAKE BUOY  1450   41 38   50/  8/  8 1009.8F   1/ 3
DEVILS ISLAND    1500   44      CALM  /  1 1010.7R
SAXON HARBOR     1420   48      30/  2/ 13 1008.1F
$$

LMZ867-665-643>646-261600-
LAKE MICHIGAN

STATION/POSITION TIME  TEMP    WIND        PRES    WAVE
                       AIR SEA DIR/SP/G            HT/PER
                 (UTC) (F)     (DEG/KT/KT) (MB)    (FT/S)
CHAMBERS ISLAND  1400   61     150/  3/  7 1011.2F
N MID LAKE BUOY  1450   48 45  200/ 10/ 12 1010.9F   1/ 3
NORTHPORT PIER   1400   62     160/  7/  9 1010.8F
SISTER BAY       1449   67        CALM       N/A
ALGOMA LAKESHORE 1402             CALM       N/A
KEWAUNEE LAKESHO 1400   50     150/  5/  5 1010.9R
SHEBOYGAN LAKESH 1500   60     160/  9/ 10 1010.9F
PORT WASHINGTON  1420   56     150/  3/  8 1012.9S
S MID LAKE BUOY  1450   53 49  180/  8/ 10 1012.9S   1/ 3
KENOSHA   LAKESH 1500   66     140/ 10/ 12 1012.5F
$$

TC  - TEMPERATURE IN CELSIUS
VSB - VISIBILITY IN STATUTE MILES
WCI - WIND CHILL INDEX
HX  - HEAT INDEX





USA.gov is the U.S. government's official web portal to all federal, state and local government web resources and services.